Vicksburg, LA

10:48 PM CDT on April 22, 2018 (GMT -0500)
Vicksburg Tallulah Regional

Weather History for KTVR - April, 2013

Change the Weather History Date:

Sunday, April 28, 2013

  Actual Average Record
Temperature  
Mean Temperature 70 °F 68 °F  
Max Temperature 75 °F 79 °F 92 °F (2002)
Min Temperature 64 °F 57 °F 42 °F (1992)
Degree Days  
Heating Degree Days 0 1  
Month to date heating degree days 124 97  
Since 1 July heating degree days 2280 2338  
Cooling Degree Days 5 4  
Month to date cooling degree days 89 77  
Year to date cooling degree days 114 109  
Growing Degree Days 20 (Base 50)    
Moisture  
Dew Point 65 °F    
Average Humidity 81    
Maximum Humidity 93    
Minimum Humidity 69    
Precipitation  
Precipitation 0.36 in 0.16 in 2.09 in (1998)
Month to date precipitation 4.39 4.65  
Year to date precipitation 30.18 20.02  
Sea Level Pressure  
Sea Level Pressure 29.99 in    
Wind  
Wind Speed 4 mph (WSW)    
Max Wind Speed 10 mph    
Max Gust Speed 14 mph    
Visibility 7 miles    
Events Rain , Thunderstorm    
T = Trace of Precipitation, MM = Missing Value Source: NWS Daily Summary

Daily Weather History Graph

Daily Weather History Graph

Search for Another Location

Airport or City:

Astronomy

Apr. 28, 2013 Rise Set
Actual Time 6:20 AM CDT 7:43 PM CDT
Civil Twilight 5:54 AM CDT 8:09 PM CDT
Nautical Twilight 5:23 AM CDT 8:40 PM CDT
Astronomical Twilight 4:51 AM CDT 9:12 PM CDT
Moon 11:07 PM CDT (4/28) 8:43 AM CDT (4/28)
Length of Visible Light 14h 14m
Length of Day
13h 22m
Waning Gibbous, 88% of the Moon is Illuminated
Apr 28
Waning Gibbous
May 2
Last Quarter
May 9
New
May 17
First Quarter
May 24
Full

Hourly Weather History & Observations

Time (CDT) Temp. Dew Point Humidity Pressure Visibility Wind Dir Wind Speed Gust Speed Precip Events Conditions
12:53 AM 72.0 °F 64.9 °F 78% 30.02 in 10.0 mi West 5.8 mph - N/A   Partly Cloudy
1:07 AM 71.6 °F 64.4 °F 78% 30.01 in 10.0 mi West 4.6 mph - N/A   Mostly Cloudy
1:49 AM 71.6 °F 64.4 °F 78% 30.01 in 10.0 mi Calm Calm - N/A   Overcast
1:53 AM 71.1 °F 64.9 °F 81% 30.03 in 10.0 mi Calm Calm - N/A   Mostly Cloudy
2:11 AM 71.6 °F 64.4 °F 78% 30.01 in 10.0 mi West 4.6 mph - N/A   Overcast
2:25 AM 71.6 °F 64.4 °F 78% 30.00 in 10.0 mi Variable 3.5 mph - N/A   Mostly Cloudy
2:53 AM 70.0 °F 64.9 °F 84% 30.01 in 10.0 mi Calm Calm - N/A   Scattered Clouds
3:53 AM 69.1 °F 64.9 °F 87% 30.01 in 10.0 mi South 3.5 mph - N/A   Mostly Cloudy
4:53 AM 69.1 °F 64.9 °F 87% 29.99 in 10.0 mi South 6.9 mph - N/A   Overcast
5:53 AM 69.1 °F 66.0 °F 90% 29.99 in 10.0 mi SSW 4.6 mph - 0.01 in   Overcast
6:53 AM 68.0 °F 66.0 °F 93% 30.00 in 7.0 mi SSW 3.5 mph - N/A   Mostly Cloudy
7:24 AM 69.8 °F 66.2 °F 88% 29.99 in 6.0 mi South 3.5 mph - N/A   Overcast
7:34 AM 69.8 °F 66.2 °F 88% 29.99 in 6.0 mi South 5.8 mph - N/A   Overcast
8:03 AM 69.8 °F 66.2 °F 88% 30.00 in 7.0 mi SSW 5.8 mph - N/A   Overcast
8:41 AM 69.8 °F 68.0 °F 94% 29.99 in 9.0 mi SSW 5.8 mph - N/A   Mostly Cloudy
8:53 AM 71.1 °F 68.0 °F 90% 30.01 in 9.0 mi SW 5.8 mph - N/A   Mostly Cloudy
9:19 AM 71.6 °F 66.2 °F 83% 29.98 in 10.0 mi SSW 4.6 mph - N/A   Mostly Cloudy
9:43 AM 69.8 °F 66.2 °F 88% 29.98 in 1.8 mi West 8.1 mph - 0.03 in Rain Heavy Rain
9:50 AM 69.8 °F 66.2 °F 88% 29.99 in 4.0 mi NW 8.1 mph - 0.03 in Rain Light Rain
9:53 AM 69.1 °F 66.0 °F 90% 30.00 in 7.0 mi WNW 5.8 mph - 0.04 in Rain Light Rain
10:08 AM 68.0 °F 66.2 °F 94% 29.99 in 2.0 mi WNW 5.8 mph - 0.03 in Rain , Thunderstorm Thunderstorms and Rain
10:20 AM 66.2 °F 66.2 °F 100% 30.00 in 5.0 mi WNW 4.6 mph - 0.03 in Thunderstorm Overcast
10:31 AM 66.2 °F 64.4 °F 94% 30.00 in 4.0 mi Calm Calm - 0.03 in Rain , Thunderstorm Light Thunderstorms and Rain
10:38 AM 66.2 °F 64.4 °F 94% 30.01 in 2.5 mi WNW 5.8 mph - 0.04 in Rain , Thunderstorm Light Thunderstorms and Rain
10:51 AM 66.2 °F 64.4 °F 94% 30.01 in 0.8 mi West 6.9 mph - 0.16 in Rain , Thunderstorm Heavy Thunderstorms and Rain
10:52 AM 66.0 °F 64.9 °F 96% 30.03 in 0.8 mi WNW 8.1 mph - 0.17 in Rain , Thunderstorm Heavy Thunderstorms and Rain
11:01 AM 66.2 °F 64.4 °F 94% 30.00 in 1.0 mi NW 6.9 mph - 0.06 in Rain , Thunderstorm Thunderstorms and Rain
11:12 AM 66.2 °F 64.4 °F 94% 30.00 in 2.0 mi NW 4.6 mph - 0.09 in Rain , Thunderstorm Thunderstorms and Rain
11:20 AM 66.2 °F 64.4 °F 94% 30.00 in 2.5 mi Variable 3.5 mph - 0.10 in Rain , Thunderstorm Rain
11:23 AM 66.2 °F 64.4 °F 94% 29.99 in 3.0 mi SE 3.5 mph - 0.10 in Rain Rain
11:30 AM 66.2 °F 64.4 °F 94% 30.00 in 5.0 mi Calm Calm - 0.10 in Rain Light Rain
11:53 AM 66.9 °F 64.9 °F 93% 30.02 in 5.0 mi Calm Calm - 0.10 in   Overcast
12:20 PM 68.0 °F 66.2 °F 94% 30.00 in 6.0 mi West 4.6 mph - N/A   Overcast
12:53 PM 66.9 °F 64.9 °F 93% 30.02 in 6.0 mi NW 3.5 mph - N/A   Overcast
1:23 PM 68.0 °F 64.4 °F 88% 30.00 in 7.0 mi NNW 3.5 mph - N/A   Mostly Cloudy
1:31 PM 69.8 °F 64.4 °F 83% 29.99 in 7.0 mi Calm Calm - N/A   Scattered Clouds
1:53 PM 70.0 °F 64.9 °F 84% 30.00 in 9.0 mi North 3.5 mph - N/A   Clear
2:22 PM 69.8 °F 64.4 °F 83% 29.99 in 10.0 mi SSW 4.6 mph - N/A   Mostly Cloudy
2:53 PM 71.1 °F 64.9 °F 81% 29.99 in 10.0 mi Calm Calm - N/A   Partly Cloudy
3:17 PM 71.6 °F 66.2 °F 83% 29.97 in 9.0 mi Calm Calm - N/A   Mostly Cloudy
3:39 PM 73.4 °F 64.4 °F 73% 29.95 in 10.0 mi Calm Calm - N/A   Scattered Clouds
3:53 PM 73.0 °F 66.0 °F 79% 29.96 in 10.0 mi Calm Calm - N/A   Clear
4:53 PM 73.9 °F 66.0 °F 76% 29.95 in 10.0 mi East 6.9 mph - N/A   Clear
5:53 PM 75.0 °F 64.9 °F 71% 29.94 in 10.0 mi ENE 3.5 mph - N/A   Clear
6:53 PM 73.0 °F 64.9 °F 76% 29.96 in 10.0 mi SSE 6.9 mph - N/A   Clear
7:53 PM 68.0 °F 64.0 °F 87% 29.95 in 9.0 mi ENE 4.6 mph - N/A   Partly Cloudy
8:53 PM 66.9 °F 64.0 °F 90% 29.97 in 9.0 mi East 4.6 mph - N/A   Scattered Clouds
9:53 PM 64.0 °F 62.1 °F 93% 29.99 in 7.0 mi East 3.5 mph - N/A   Clear
10:53 PM 64.9 °F 63.0 °F 93% 30.00 in 8.0 mi East 4.6 mph - N/A   Scattered Clouds
11:21 PM 66.2 °F 62.6 °F 88% 29.97 in 9.0 mi East 5.8 mph - N/A   Mostly Cloudy
11:31 PM 66.2 °F 62.6 °F 88% 29.97 in 9.0 mi East 4.6 mph - N/A   Mostly Cloudy
11:53 PM 64.9 °F 63.0 °F 93% 29.99 in 9.0 mi SE 3.5 mph - N/A   Overcast